Weather History for KSYN - May, 2013

Change the Weather History Date:

Tuesday, May 21, 2013

  Actual Average (KLVN) Record (KLVN)
Temperature  
Mean Temperature 60 °F -  
Max Temperature 66 °F 74 °F 92 °F (1964)
Min Temperature 55 °F 49 °F 35 °F (1979)
Degree Days  
Heating Degree Days 5    
Growing Degree Days 10 (Base 50)    
Moisture  
Dew Point 55 °F    
Average Humidity 80    
Maximum Humidity 92    
Minimum Humidity 64    
Precipitation  
Precipitation 0.03 in - - ()
Sea Level Pressure  
Sea Level Pressure 29.59 in    
Wind  
Wind Speed 5 mph (SSW)    
Max Wind Speed 17 mph    
Max Gust Speed 22 mph    
Visibility 10 miles    
Events Rain    
Averages and records for this station are not official NWS values.
T = Trace of Precipitation, MM = Missing Value Source: NWS Daily Summary

Daily Weather History Graph

Daily Weather History Graph

Search for Another Location

Airport or City:

Trip Planner

Search our weather history database for the weather conditions in past years. The results will help you decide how hot, cold, wet, or windy it might be!

Date:

Astronomy

May. 21, 2013 Rise Set
Actual Time 5:38 AM CDT 8:39 PM CDT
Civil Twilight 5:03 AM CDT 9:14 PM CDT
Nautical Twilight 4:19 AM CDT 9:58 PM CDT
Astronomical Twilight 3:26 AM CDT 10:51 PM CDT
Moon 4:46 PM CDT (5/21) 3:15 AM CDT (5/21)
Length of Visible Light 16h 10m
Length of Day
15h 01m
Waxing Gibbous, 84% of the Moon is Illuminated
May 21
Waxing Gibbous
May 24
Full
May 31
Last Quarter
Jun 8
New
Jun 16
First Quarter

Hourly Weather History & Observations

Time (CDT) Temp. Dew Point Humidity Pressure Visibility Wind Dir Wind Speed Gust Speed Precip Events Conditions
12:13 AM 59.4 °F 54.9 °F 85% 29.55 in 10.0 mi SE 5.8 mph - 0.02 in Rain Rain
12:33 AM 59.0 °F 55.0 °F 87% 29.55 in 10.0 mi Calm Calm - 0.02 in   Mostly Cloudy
12:54 AM 59.0 °F 55.4 °F 88% 29.54 in 10.0 mi Calm Calm - 0.02 in   Clear
1:13 AM 59.0 °F 55.0 °F 87% 29.54 in 10.0 mi SE 3.5 mph - N/A   Scattered Clouds
1:33 AM 59.0 °F 55.4 °F 88% 29.53 in 10.0 mi Calm Calm - N/A   Mostly Cloudy
1:54 AM 57.9 °F 54.9 °F 90% 29.53 in 10.0 mi Calm Calm - N/A   Scattered Clouds
2:13 AM 57.4 °F 54.5 °F 90% 29.52 in 10.0 mi ENE 3.5 mph - N/A   Scattered Clouds
2:33 AM 57.4 °F 54.7 °F 91% 29.52 in 10.0 mi Calm Calm - N/A   Mostly Cloudy
2:54 AM 57.2 °F 54.5 °F 91% 29.52 in 10.0 mi Calm Calm - N/A   Overcast
3:13 AM 57.4 °F 55.2 °F 92% 29.52 in 10.0 mi Calm Calm - N/A   Overcast
3:33 AM 58.3 °F 55.2 °F 90% 29.52 in 10.0 mi Calm Calm - N/A   Overcast
3:54 AM 59.9 °F 54.7 °F 83% 29.52 in 10.0 mi ESE 4.6 mph - 0.01 in   Overcast
4:13 AM 59.9 °F 55.0 °F 84% 29.51 in 10.0 mi ENE 5.8 mph - N/A   Overcast
4:33 AM 60.3 °F 55.2 °F 83% 29.51 in 10.0 mi Calm Calm - N/A   Mostly Cloudy
4:54 AM 60.1 °F 55.0 °F 83% 29.51 in 10.0 mi SE 6.9 mph - N/A   Mostly Cloudy
5:13 AM 59.9 °F 55.4 °F 85% 29.51 in 10.0 mi SE 5.8 mph - N/A   Overcast
5:33 AM 60.1 °F 55.6 °F 85% 29.52 in 10.0 mi Calm Calm - N/A   Overcast
5:54 AM 60.1 °F 55.6 °F 85% 29.52 in 10.0 mi Calm Calm - N/A   Overcast
6:13 AM 60.3 °F 55.9 °F 86% 29.53 in 10.0 mi East 4.6 mph - N/A   Overcast
6:34 AM 60.6 °F 56.3 °F 86% 29.53 in 10.0 mi SE 3.5 mph - N/A   Overcast
6:53 AM 60.8 °F 56.3 °F 85% 29.53 in 10.0 mi ESE 4.6 mph - N/A   Overcast
7:13 AM 60.8 °F 56.5 °F 86% 29.53 in 10.0 mi SE 5.8 mph - N/A   Overcast
7:34 AM 61.0 °F 56.7 °F 86% 29.54 in 10.0 mi SE 5.8 mph - N/A   Overcast
7:53 AM 61.3 °F 57.0 °F 86% 29.53 in 10.0 mi SSE 6.9 mph - N/A   Overcast
8:14 AM 61.7 °F 57.4 °F 86% 29.53 in 10.0 mi SSE 6.9 mph - N/A   Overcast
8:34 AM 61.9 °F 57.4 °F 85% 29.53 in 10.0 mi South 6.9 mph - N/A   Overcast
8:53 AM 62.6 °F 57.9 °F 85% 29.54 in 10.0 mi South 5.8 mph - N/A   Overcast
9:14 AM 62.6 °F 57.7 °F 84% 29.55 in 10.0 mi SSW 8.1 mph - N/A   Overcast
9:34 AM 63.5 °F 57.7 °F 81% 29.55 in 10.0 mi SSW 10.4 mph - N/A   Overcast
9:53 AM 63.5 °F 57.7 °F 81% 29.55 in 10.0 mi SW 10.4 mph - N/A   Overcast
10:14 AM 63.5 °F 57.4 °F 80% 29.56 in 10.0 mi SW 10.4 mph - N/A   Overcast
10:34 AM 63.5 °F 56.5 °F 78% 29.57 in 10.0 mi SW 10.4 mph - N/A   Overcast
10:53 AM 64.4 °F 57.0 °F 77% 29.57 in 10.0 mi SW 8.1 mph - N/A   Overcast
11:14 AM 63.5 °F 56.5 °F 78% 29.57 in 10.0 mi SW 10.4 mph - N/A   Overcast
11:34 AM 62.6 °F 56.1 °F 79% 29.58 in 10.0 mi SSW 11.5 mph - N/A   Overcast
11:53 AM 61.9 °F 54.7 °F 77% 29.59 in 10.0 mi SW 9.2 mph - N/A   Overcast
12:14 PM 63.7 °F 54.9 °F 73% 29.58 in 10.0 mi SSW 6.9 mph - N/A   Overcast
12:34 PM 64.6 °F 54.5 °F 70% 29.59 in 10.0 mi SSW 9.2 mph - N/A   Overcast
12:53 PM 64.6 °F 53.8 °F 68% 29.59 in 10.0 mi SSW 9.2 mph - N/A   Overcast
1:14 PM 65.3 °F 54.1 °F 67% 29.59 in 10.0 mi SSW 10.4 mph - N/A   Overcast
1:33 PM 64.4 °F 53.4 °F 67% 29.60 in 10.0 mi SSW 8.1 mph - N/A   Overcast
1:54 PM 64.4 °F 53.6 °F 68% 29.60 in 10.0 mi SW 9.2 mph - N/A   Overcast
2:13 PM 65.1 °F 53.2 °F 65% 29.60 in 10.0 mi SSW 8.1 mph - N/A   Overcast
2:33 PM 65.3 °F 52.9 °F 64% 29.61 in 10.0 mi SSW 8.1 mph - N/A   Overcast
2:54 PM 64.4 °F 53.6 °F 68% 29.61 in 10.0 mi SSW 8.1 mph - N/A   Overcast
3:13 PM 64.6 °F 53.2 °F 67% 29.61 in 10.0 mi SW 11.5 mph - N/A   Overcast
3:33 PM 64.2 °F 53.2 °F 67% 29.62 in 10.0 mi SSW 17.3 mph 21.9 mph N/A   Overcast
3:54 PM 61.2 °F 52.7 °F 74% 29.63 in 10.0 mi SSW 17.3 mph 21.9 mph N/A   Overcast
4:13 PM 59.9 °F 53.4 °F 79% 29.63 in 7.0 mi SW 11.5 mph - N/A   Overcast
4:33 PM 61.5 °F 53.4 °F 75% 29.64 in 10.0 mi WSW 13.8 mph - N/A   Overcast
4:54 PM 60.8 °F 52.9 °F 75% 29.64 in 10.0 mi SW 11.5 mph - N/A   Overcast
5:13 PM 61.2 °F 52.7 °F 74% 29.64 in 10.0 mi SW 8.1 mph - N/A   Overcast
5:34 PM 61.5 °F 52.0 °F 71% 29.64 in 10.0 mi SW 5.8 mph - N/A   Overcast
5:54 PM 61.9 °F 51.6 °F 69% 29.63 in 10.0 mi WSW 5.8 mph - N/A   Overcast
6:13 PM 61.7 °F 52.0 °F 70% 29.63 in 10.0 mi SW 6.9 mph - N/A   Overcast
6:34 PM 61.9 °F 51.8 °F 69% 29.63 in 10.0 mi SW 5.8 mph - N/A   Overcast
6:54 PM 62.1 °F 50.9 °F 67% 29.64 in 10.0 mi SW 4.6 mph - N/A   Overcast
7:13 PM 61.7 °F 51.1 °F 68% 29.64 in 10.0 mi Calm Calm - N/A   Overcast
7:34 PM 61.3 °F 50.7 °F 68% 29.65 in 10.0 mi SW 3.5 mph - N/A   Overcast
7:54 PM 60.8 °F 53.1 °F 76% 29.66 in 10.0 mi SW 3.5 mph - N/A   Overcast
8:13 PM 60.8 °F 54.1 °F 79% 29.66 in 10.0 mi Calm Calm - N/A   Overcast
8:34 PM 60.8 °F 53.6 °F 77% 29.66 in 10.0 mi Calm Calm - N/A   Overcast
8:54 PM 59.9 °F 54.0 °F 81% 29.66 in 10.0 mi North 3.5 mph - N/A   Overcast
9:13 PM 59.4 °F 54.1 °F 83% 29.66 in 10.0 mi North 3.5 mph - N/A   Overcast
9:34 PM 58.6 °F 54.3 °F 86% 29.66 in 10.0 mi NNE 5.8 mph - N/A   Overcast
9:54 PM 57.6 °F 54.5 °F 90% 29.67 in 10.0 mi NNE 6.9 mph - N/A   Overcast
10:13 PM 56.8 °F 53.8 °F 89% 29.67 in 10.0 mi NE 6.9 mph - N/A   Overcast
10:34 PM 56.5 °F 53.6 °F 90% 29.67 in 10.0 mi NE 6.9 mph - N/A   Overcast
10:54 PM 56.5 °F 53.8 °F 91% 29.67 in 10.0 mi NNE 8.1 mph - N/A   Overcast
11:13 PM 56.3 °F 53.2 °F 89% 29.66 in 10.0 mi NNE 9.2 mph - N/A   Overcast
11:34 PM 55.9 °F 53.1 °F 90% 29.66 in 10.0 mi NE 6.9 mph - N/A   Overcast
11:54 PM 55.8 °F 52.9 °F 90% 29.67 in 10.0 mi NE 5.8 mph - N/A   Overcast